Change the Weather History Date:

Tuesday, April 30, 2013

  Actual Average (KARR) Record (KARR)
Temperature  
Mean Temperature 68 °F 54 °F  
Max Temperature 82 °F 65 °F 84 °F (2001)
Min Temperature 55 °F 42 °F 30 °F (2005)
Degree Days  
Heating Degree Days 0 12  
Month to date heating degree days 497  
Since 1 July heating degree days 6506  
Cooling Degree Days 4 0  
Month to date cooling degree days 3  
Year to date cooling degree days 3  
Growing Degree Days 18 (Base 50)    
Moisture  
Dew Point 54 °F    
Average Humidity 64    
Maximum Humidity 89    
Minimum Humidity 27    
Precipitation  
Precipitation 0.00 in 0.16 in 1.63 in (2003)
Month to date precipitation 3.30  
Year to date precipitation 8.62  
Sea Level Pressure  
Sea Level Pressure 29.83 in    
Wind  
Wind Speed 19 mph (South)    
Max Wind Speed 28 mph    
Max Gust Speed 32 mph    
Visibility 10 miles    
Events      
T = Trace of Precipitation, MM = Missing Value Source: NWS Daily Summary

Daily Weather History Graph

Daily Weather History Graph

Search for Another Location

Airport or City:

Trip Planner

Search our weather history database for the weather conditions in past years. The results will help you decide how hot, cold, wet, or windy it might be!

Date:

Astronomy

Apr. 30, 2013 Rise Set
Actual Time 5:51 AM CDT 7:52 PM CDT
Civil Twilight 5:21 AM CDT 8:23 PM CDT
Nautical Twilight 4:44 AM CDT 9:00 PM CDT
Astronomical Twilight 4:04 AM CDT 9:41 PM CDT
Moon 12:16 AM CDT (4/30) 10:19 AM CDT (4/30)
Length of Visible Light 15h 01m
Length of Day
14h 00m
Waning Gibbous, 70% of the Moon is Illuminated
Apr 30
Waning Gibbous
May 2
Last Quarter
May 9
New
May 17
First Quarter
May 24
Full

Hourly Weather History & Observations

Time (CDT) Temp. Heat Index Dew Point Humidity Pressure Visibility Wind Dir Wind Speed Gust Speed Precip Events Conditions
12:15 AM 59.9 °F - 54.3 °F 82% 29.80 in 10.0 mi SSE 18.4 mph 23.0 mph N/A   Scattered Clouds
12:35 AM 59.5 °F - 54.1 °F 82% 29.79 in 10.0 mi SSE 19.6 mph - N/A   Scattered Clouds
12:55 AM 59.5 °F - 54.0 °F 82% 29.78 in 10.0 mi SSE 19.6 mph 24.2 mph N/A   Scattered Clouds
1:15 AM 59.4 °F - 53.6 °F 81% 29.78 in 10.0 mi SSE 18.4 mph - N/A   Mostly Cloudy
1:35 AM 59.0 °F - 53.2 °F 81% 29.77 in 10.0 mi SSE 18.4 mph 26.5 mph N/A   Scattered Clouds
1:55 AM 58.5 °F - 52.9 °F 82% 29.77 in 10.0 mi SSE 20.7 mph 26.5 mph N/A   Scattered Clouds
2:15 AM 57.7 °F - 52.5 °F 83% 29.77 in 10.0 mi SSE 19.6 mph 25.3 mph N/A   Scattered Clouds
2:35 AM 57.7 °F - 52.7 °F 83% 29.77 in 10.0 mi SSE 19.6 mph 25.3 mph N/A   Clear
2:55 AM 57.4 °F - 52.5 °F 84% 29.77 in 10.0 mi SSE 18.4 mph 24.2 mph N/A   Clear
3:15 AM 57.7 °F - 52.9 °F 84% 29.78 in 10.0 mi SSE 17.3 mph 24.2 mph N/A   Clear
3:35 AM 57.7 °F - 52.9 °F 84% 29.79 in 10.0 mi SSE 17.3 mph - N/A   Clear
3:55 AM 57.7 °F - 52.9 °F 84% 29.79 in 10.0 mi SSE 18.4 mph 24.2 mph N/A   Clear
4:15 AM 57.7 °F - 53.1 °F 84% 29.79 in 10.0 mi SSE 19.6 mph - N/A   Clear
4:35 AM 57.6 °F - 53.2 °F 85% 29.79 in 10.0 mi SSE 19.6 mph - N/A   Clear
4:55 AM 57.2 °F - 53.1 °F 86% 29.78 in 10.0 mi SSE 20.7 mph - N/A   Clear
5:15 AM 57.2 °F - 53.1 °F 86% 29.79 in 10.0 mi SSE 19.6 mph - N/A   Clear
5:35 AM 56.8 °F - 53.1 °F 87% 29.79 in 10.0 mi SSE 18.4 mph - N/A   Clear
5:55 AM 56.5 °F - 52.9 °F 88% 29.80 in 10.0 mi SSE 17.3 mph 24.2 mph N/A   Clear
6:15 AM 56.3 °F - 52.7 °F 88% 29.80 in 10.0 mi SSE 18.4 mph - N/A   Clear
6:35 AM 55.9 °F - 52.7 °F 89% 29.81 in 10.0 mi SSE 17.3 mph - N/A   Clear
6:55 AM 55.8 °F - 52.7 °F 89% 29.81 in 10.0 mi SSE 17.3 mph - N/A   Clear
7:15 AM 55.9 °F - 52.7 °F 89% 29.81 in 10.0 mi South 17.3 mph - N/A   Clear
7:35 AM 56.7 °F - 53.4 °F 89% 29.81 in 10.0 mi South 16.1 mph - N/A   Clear
7:55 AM 57.2 °F - 53.8 °F 88% 29.81 in 10.0 mi South 16.1 mph 23.0 mph N/A   Clear
8:15 AM 57.7 °F - 54.5 °F 89% 29.82 in 10.0 mi SSE 17.3 mph - N/A   Clear
8:35 AM 60.1 °F - 56.1 °F 87% 29.82 in 10.0 mi South 16.1 mph - N/A   Scattered Clouds
8:55 AM 61.7 °F - 57.0 °F 85% 29.81 in 10.0 mi South 18.4 mph 27.6 mph N/A   Scattered Clouds
9:15 AM 64.2 °F - 58.1 °F 80% 29.81 in 10.0 mi South 20.7 mph - N/A   Clear
9:35 AM 66.0 °F - 59.0 °F 78% 29.82 in 10.0 mi South 18.4 mph 24.2 mph N/A   Clear
9:55 AM 67.5 °F - 59.4 °F 75% 29.81 in 10.0 mi South 18.4 mph 23.0 mph N/A   Clear
10:15 AM 69.1 °F - 59.2 °F 71% 29.81 in 10.0 mi South 19.6 mph 24.2 mph N/A   Clear
10:35 AM 70.3 °F - 59.5 °F 69% 29.82 in 10.0 mi South 19.6 mph - N/A   Clear
10:55 AM 72.1 °F - 58.5 °F 62% 29.82 in 10.0 mi South 20.7 mph 25.3 mph N/A   Clear
11:15 AM 72.1 °F - 58.6 °F 62% 29.82 in 10.0 mi South 18.4 mph 26.5 mph N/A   Clear
11:35 AM 74.8 °F - 59.2 °F 58% 29.82 in 10.0 mi South 19.6 mph - N/A   Clear
11:55 AM 75.2 °F - 59.5 °F 58% 29.82 in 10.0 mi South 19.6 mph 24.2 mph N/A   Clear
12:15 PM 77.0 °F - 56.7 °F 49% 29.82 in 10.0 mi SSW 21.9 mph 26.5 mph N/A   Clear
12:35 PM 77.9 °F - 55.9 °F 47% 29.82 in 10.0 mi SSW 17.3 mph 25.3 mph N/A   Clear
12:55 PM 78.1 °F - 54.9 °F 45% 29.82 in 10.0 mi South 18.4 mph 26.5 mph N/A   Clear
1:15 PM 79.3 °F - 54.9 °F 43% 29.82 in 10.0 mi SSW 19.6 mph 25.3 mph N/A   Clear
1:35 PM 80.2 °F 80.2 °F 54.5 °F 41% 29.82 in 10.0 mi SSW 19.6 mph 26.5 mph N/A   Clear
1:55 PM 80.6 °F 80.3 °F 53.6 °F 39% 29.82 in 10.0 mi SSW 20.7 mph 26.5 mph N/A   Clear
2:15 PM 80.6 °F 80.3 °F 53.4 °F 39% 29.82 in 10.0 mi South 21.9 mph 26.5 mph N/A   Clear
2:35 PM 81.3 °F - 52.5 °F 37% 29.82 in 10.0 mi South 20.7 mph 28.8 mph N/A   Clear
2:55 PM 81.5 °F - 50.5 °F 34% 29.82 in 10.0 mi SSW 23.0 mph 31.1 mph N/A   Clear
3:15 PM 81.7 °F - 49.5 °F 32% 29.81 in 10.0 mi SSW 20.7 mph 32.2 mph N/A   Clear
3:35 PM 82.4 °F - 48.6 °F 31% 29.81 in 10.0 mi South 25.3 mph - N/A   Clear
3:55 PM 82.4 °F - 47.3 °F 29% 29.81 in 10.0 mi SSW 20.7 mph 31.1 mph N/A   Clear
4:15 PM 82.6 °F - 46.2 °F 28% 29.81 in 10.0 mi SSW 27.6 mph 31.1 mph N/A   Clear
4:35 PM 81.7 °F - 45.0 °F 27% 29.82 in 10.0 mi SSW 25.3 mph 31.1 mph N/A   Clear
4:55 PM 81.5 °F - 47.3 °F 30% 29.82 in 10.0 mi SSW 21.9 mph 27.6 mph N/A   Clear
5:15 PM 81.5 °F - 50.9 °F 34% 29.82 in 10.0 mi South 20.7 mph 29.9 mph N/A   Clear
5:35 PM 80.6 °F - 50.7 °F 35% 29.82 in 10.0 mi South 20.7 mph 28.8 mph N/A   Clear
5:55 PM 79.9 °F - 48.7 °F 34% 29.83 in 10.0 mi South 24.2 mph 31.1 mph N/A   Clear
6:15 PM 79.2 °F - 50.0 °F 36% 29.84 in 10.0 mi South 23.0 mph 29.9 mph N/A   Clear
6:35 PM 78.8 °F - 51.4 °F 38% 29.85 in 10.0 mi South 19.6 mph 27.6 mph N/A   Clear
6:55 PM 77.4 °F - 53.1 °F 43% 29.86 in 10.0 mi South 18.4 mph 26.5 mph N/A   Clear
7:15 PM 75.7 °F - 53.4 °F 46% 29.86 in 10.0 mi South 17.3 mph 24.2 mph N/A   Clear
7:55 PM 72.3 °F - 53.8 °F 52% 29.88 in 10.0 mi South 13.8 mph - N/A   Clear
8:15 PM 71.2 °F - 53.6 °F 54% 29.89 in 10.0 mi South 15.0 mph - N/A   Clear
8:35 PM 70.3 °F - 53.8 °F 56% 29.89 in 10.0 mi South 13.8 mph - N/A   Clear
8:55 PM 69.1 °F - 52.9 °F 56% 29.90 in 10.0 mi South 12.7 mph - N/A   Clear
9:15 PM 67.8 °F - 52.9 °F 59% 29.91 in 10.0 mi South 11.5 mph - N/A   Clear
9:35 PM 66.0 °F - 52.9 °F 63% 29.92 in 10.0 mi South 11.5 mph - N/A   Clear
9:55 PM 65.3 °F - 53.1 °F 65% 29.92 in 10.0 mi South 10.4 mph - N/A   Clear
10:15 PM 65.3 °F - 53.1 °F 65% 29.92 in 10.0 mi South 11.5 mph - N/A   Clear
10:35 PM 64.4 °F - 53.2 °F 67% 29.93 in 10.0 mi SSE 10.4 mph - N/A   Clear
10:55 PM 63.1 °F - 53.1 °F 70% 29.93 in 10.0 mi SSE 11.5 mph - N/A   Clear
11:15 PM 63.3 °F - 54.1 °F 72% 29.94 in 10.0 mi SSE 10.4 mph - N/A   Clear
11:35 PM 62.1 °F - 54.7 °F 77% 29.94 in 10.0 mi South 11.5 mph - N/A   Clear
11:55 PM 61.9 °F - 55.4 °F 79% 29.96 in 10.0 mi South 10.4 mph - N/A   Clear